Wetterdaten: Sonntag, 21.12.2014
Datum Zeit Temp. A. Feuchte A. Luftdruck Regen Wind Richtung Richtung Sonnenschein ET UV Solar Taupunkt Windchill Windben Empfang
21.12.2014 00:00 4,5 C 66 % 1023,0 hPa 0,0 l/m 11,6 km/h (2 Bft) W-SW 240 0 min 0,000 mm 0,0 UV-I 0 W/m -1,3 C 0,4 C 15,8 km/h (3 Bft) 0,00 %
21.12.2014 01:00 4,3 C 70 % 1023,0 hPa 0,3 l/m 14,8 km/h (3 Bft) W-SW 240 0 min 0,000 mm 0,0 UV-I 0 W/m -0,7 C -1,7 C 19,8 km/h (3 Bft) 0,00 %
21.12.2014 02:00 2,4 C 78 % 1024,8 hPa 0,9 l/m 5,5 km/h (1 Bft) W-SW 240 0 min 0,000 mm 0,0 UV-I 0 W/m -1,0 C 2,4 C 7,9 km/h (2 Bft) 0,00 %
21.12.2014 03:00 2,2 C 78 % 1025,9 hPa 0,6 l/m 6,4 km/h (2 Bft) W-SW 240 0 min 0,000 mm 0,0 UV-I 0 W/m -1,2 C 2,2 C 11,9 km/h (2 Bft) 0,00 %
21.12.2014 04:00 2,8 C 78 % 1026,5 hPa 0,0 l/m 16,9 km/h (3 Bft) W-SW 240 0 min 0,000 mm 0,0 UV-I 0 W/m -0,6 C -4,6 C 24,1 km/h (4 Bft) 0,00 %
21.12.2014 05:00 3,3 C 72 % 1027,2 hPa 0,0 l/m 14,0 km/h (3 Bft) W-SW 240 0 min 0,000 mm 0,0 UV-I 0 W/m -1,3 C -2,4 C 19,8 km/h (3 Bft) 0,00 %
21.12.2014 06:00 3,2 C 72 % 1028,6 hPa 0,0 l/m 24,8 km/h (4 Bft) W-SW 240 0 min 0,000 mm 0,0 UV-I 0 W/m -1,3 C -7,3 C 32,0 km/h (5 Bft) 0,00 %
21.12.2014 07:00 2,5 C 72 % 1029,7 hPa 0,0 l/m 9,7 km/h (2 Bft) W-SW 240 0 min 0,000 mm 0,0 UV-I 0 W/m -2,0 C -0,5 C 11,9 km/h (2 Bft) 0,00 %
21.12.2014 08:00 3,0 C 72 % 1030,8 hPa 0,0 l/m 3,2 km/h (1 Bft) W-SW 240 0 min 0,000 mm 1,0 UV-I 8 W/m -1,5 C 3,0 C 7,9 km/h (2 Bft) 0,00 %
21.12.2014 09:00 3,6 C 71 % 1031,0 hPa 0,0 l/m 0,6 km/h (0 Bft) W-SW 240 0 min 0,000 mm 1,0 UV-I 55 W/m -1,2 C 3,6 C 4,0 km/h (1 Bft) 0,00 %
21.12.2014 10:00 4,5 C 66 % 1031,6 hPa 0,0 l/m 4,0 km/h (1 Bft) W-SW 240 0 min 0,000 mm 1,0 UV-I 93 W/m -1,3 C 4,5 C 7,9 km/h (2 Bft) 0,00 %
21.12.2014 11:00 4,7 C 65 % 1031,1 hPa 0,0 l/m 2,9 km/h (1 Bft) W-SW 240 0 min 0,000 mm 1,0 UV-I 70 W/m -1,3 C 4,7 C 7,9 km/h (2 Bft) 0,00 %
21.12.2014 12:00 5,1 C 64 % 1030,7 hPa 0,0 l/m 0,0 km/h (0 Bft) W-SW 240 0 min 0,000 mm 1,0 UV-I 127 W/m -1,1 C 5,1 C 0,0 km/h (0 Bft) 0,00 %
21.12.2014 13:00 5,5 C 63 % 1030,4 hPa 0,0 l/m 0,0 km/h (0 Bft) W-SW 240 0 min 0,000 mm 1,0 UV-I 111 W/m -1,0 C 5,5 C 0,0 km/h (0 Bft) 0,00 %
21.12.2014 14:00 5,5 C 64 % 1029,9 hPa 0,0 l/m 5,5 km/h (1 Bft) W-SW 240 0 min 0,000 mm 1,0 UV-I 107 W/m -0,8 C 5,5 C 7,9 km/h (2 Bft) 0,00 %
21.12.2014 15:00 5,1 C 64 % 1030,0 hPa 0,0 l/m 5,5 km/h (1 Bft) W-SW 240 0 min 0,000 mm 1,0 UV-I 40 W/m -1,1 C 5,1 C 7,9 km/h (2 Bft) 0,00 %
21.12.2014 16:00 4,7 C 66 % 1030,1 hPa 0,0 l/m 4,0 km/h (1 Bft) W-SW 240 0 min 0,000 mm 0,0 UV-I 0 W/m -1,1 C 4,7 C 7,9 km/h (2 Bft) 0,00 %
21.12.2014 17:00 3,9 C 69 % 1030,6 hPa 0,0 l/m 0,3 km/h (0 Bft) W-SW 240 0 min 0,000 mm 0,0 UV-I 0 W/m -1,3 C 3,9 C 4,0 km/h (1 Bft) 0,00 %
21.12.2014 18:00 3,7 C 70 % 1030,7 hPa 0,0 l/m 0,0 km/h (0 Bft) W-SW 240 0 min 0,000 mm 0,0 UV-I 0 W/m -1,3 C 3,7 C 0,0 km/h (0 Bft) 0,00 %
21.12.2014 19:00 3,0 C 73 % 1030,8 hPa 0,0 l/m 0,6 km/h (0 Bft) W-SW 240 0 min 0,000 mm 0,0 UV-I 0 W/m -1,4 C 3,0 C 4,0 km/h (1 Bft) 0,00 %
21.12.2014 20:00 3,3 C 70 % 1030,7 hPa 0,0 l/m 0,3 km/h (0 Bft) W-SW 240 0 min 0,000 mm 0,0 UV-I 0 W/m -1,6 C 3,3 C 4,0 km/h (1 Bft) 0,00 %
21.12.2014 21:00 2,9 C 69 % 1030,1 hPa 0,0 l/m 1,4 km/h (1 Bft) W-SW 240 0 min 0,000 mm 0,0 UV-I 0 W/m -2,2 C 2,9 C 4,0 km/h (1 Bft) 0,00 %
21.12.2014 22:00 2,9 C 68 % 1029,7 hPa 0,0 l/m 0,3 km/h (0 Bft) W-SW 240 0 min 0,000 mm 0,0 UV-I 0 W/m -2,4 C 2,9 C 4,0 km/h (1 Bft) 0,00 %
21.12.2014 23:00 2,9 C 70 % 1029,7 hPa 0,0 l/m 0,0 km/h (0 Bft) W-SW 240 0 min 0,000 mm 0,0 UV-I 0 W/m -2,0 C 2,9 C 0,0 km/h (0 Bft) 0,00 %
_ Min-Zeit 03:00 13:00 00:00 - 12:00 - - - - - - 22:00 06:00 12:00 00:00
Minimum _ 2,2 C 63 % 1023,0 hPa - 0,0 km/h (0 Bft) - - - - - - -2,4 C -7,3 C 0,0 km/h (0 Bft) 0,00 %
_ Max-Zeit 13:00 02:00 10:00 02:00 06:00 - - 00:00 00:00 08:00 12:00 04:00 13:00 06:00 00:00
Maximum _ 5,5 C 78 % 1031,6 hPa 0,9 l/m 24,8 km/h
W-SW (4 Bft)
- - 0 min 0,000 mm 1,0 UV-I 127 W/m -0,6 C 5,5 C 32,0 km/h
W-SW (5 Bft)
0,00 %
Durchschnitt _ 3,7 C 70 % 1029,3 hPa #1,8 l/m 5,3 km/h (1 Bft) W-SW - #0 min. #0,000 mm 1,0 UV-I 76 W/m -1,3 C 2,3 C 8,6 km/h (2 Bft) 0,00 %